Temperature
18 18 18 17 17 17 17 17 17 17 17 17 17 16 16 16 16 15 15 15 15 15 14 14 14 14 14 13 14 14 14 14 14 15 15 15 15 15 15 15 15 15 15
18 18 17 17 17 18 18 17 17 17 17 17 17 16 16 16 16 15 15 15 15 14 14 14 14 13 13 13 13 13 14 14 14 15 16 17 16 14 15 14 14 14 15
18 18 17 17 17 17 18 17 17 17 17 17 17 16 16 16 16 15 15 15 15 14 14 14 13 13 13 13 13 13 13 14 14 14 15 17 18 16 15 14 14 14 14
19 18 18 18 18 18 17 17 17 17 17 17 17 16 16 16 16 15 15 15 15 14 14 14 13 13 13 13 13 13 13 13 14 14 14 14 15 16 16 15 14 14 14
19 19 18 18 18 18 17 17 17 17 17 17 17 17 16 16 16 15 15 15 15 14 14 14 13 13 13 13 13 13 13 13 13 14 14 14 14 14 15 16 15 15 14
19 19 18 18 18 17 17 17 17 17 17 17 17 17 17 16 16 16 15 15 15 14 14 14 13 13 13 13 12 12 12 13 13 13 13 14 14 14 15 15 15 15 14
20 19 18 18 18 17 17 17 17 18 18 18 17 17 17 17 16 16 16 15 15 15 14 14 14 13 13 13 12 12 12 12 12 12 13 13 13 13 13 14 15 14 14
20 20 19 18 18 18 17 17 17 18 18 18 18 18 17 17 16 16 16 16 15 15 15 14 14 13 13 13 13 12 12 12 12 12 12 12 12 12 13 13 13 14 15
21 20 20 19 19 18 18 18 18 18 18 18 18 18 18 17 17 17 16 16 16 15 15 15 14 14 13 13 13 13 12 12 12 12 12 12 12 12 12 12 12 13 14
22 21 20 20 19 19 18 18 18 18 18 18 18 18 18 18 17 17 17 16 16 16 15 15 15 14 14 13 13 13 12 12 12 12 12 12 12 12 12 12 12 12 13
23 22 21 20 20 20 19 19 19 19 19 19 19 19 18 18 18 17 17 17 16 16 16 15 15 15 14 14 14 13 13 13 12 12 12 12 12 12 12 12 12 12 12
23 23 22 21 21 20 20 19 19 19 19 19 19 19 19 19 18 18 18 17 17 16 16 16 15 15 14 14 14 14 13 13 13 13 13 12 12 12 12 12 12 12 12
23 23 22 22 21 21 20 20 20 20 20 19 19 19 19 19 19 18 18 18 17 17 16 16 16 16 15 15 15 14 14 14 13 13 13 13 12 12 12 12 12 12 12
22 22 22 21 21 21 20 20 20 20 20 19 19 20 20 19 19 19 18 18 18 17 17 17 16 16 15 15 15 15 14 14 14 14 13 13 13 13 12 12 12 12 12
22 21 21 21 20 20 20 20 20 20 20 19 19 20 19 19 19 19 19 18 18 18 17 17 17 16 16 16 15 15 15 14 14 14 14 14 14 13 13 12 12 12 11
20 20 20 20 20 20 20 20 20 20 20 20 19 19 19 19 19 19 18 18 18 18 17 17 17 16 16 16 16 16 15 14 14 14 14 14 14 14 14 14 13 12 11
19 19 19 19 19 20 20 19 19 19 19 19 19 19 19 19 19 18 18 18 18 17 17 17 16 16 16 16 16 16 15 14 14 14 14 14 14 14 14 14 14 13 13
17 17 18 18 18 18 18 19 18 18 18 18 18 18 17 17 17 17 17 17 17 17 17 17 16 16 16 16 16 15 15 14 14 14 14 14 14 14 13 13 13 13 13
16 16 17 17 17 17 17 18 17 17 17 17 17 17 17 16 16 16 16 16 16 16 16 16 16 16 16 15 15 15 14 14 14 14 13 13 13 14 13 13 12 12 12
15 15 15 16 16 16 16 17 16 16 16 16 16 16 16 16 15 15 15 15 15 15 15 14 14 14 14 14 14 14 13 13 13 13 13 13 13 13 13 13 12 12 12
14 15 15 15 15 15 16 16 16 15 15 14 14 14 14 14 14 14 14 14 14 14 13 13 13 13 13 13 13 13 13 12 12 12 12 13 12 12 12 12 12 12 12
14 14 14 14 14 14 14 14 14 13 13 13 13 13 13 13 13 13 13 12 12 12 12 12 12 12 12 12 12 12 12 11 11 11 11 12 12 12 12 12 12 12 11
13 13 14 13 13 13 13 13 12 12 12 12 12 12 12 12 11 11 11 11 11 11 11 11 11 11 11 11 10 10 10 10 10 10 10 10 11 11 11 11 11 11 11
13 13 13 12 12 12 12 12 11 11 11 11 11 11 10 11 10 10 10 10 10 10 10 10 10 10 10 10 10 9 9 9 9 9 9 9 10 10 10 10 10 10 10
12 12 12 12 11 11 11 11 11 11 11 10 10 10 10 10 10 10 10 9 9 9 9 9 8 9 9 9 8 8 8 8 8 8 8 8 9 9 10 10 10 10 10
12 11 11 11 11 11 10 10 10 10 10 10 10 10 10 10 10 10 10 9 9 8 8 8 8 7 7 7 7 7 7 7 7 7 7 8 8 9 9 10 10 10 10
Wind_Speed
10 10 10 11 11 11 11 11 11 11 10 9 9 9 8 7 6 6 6 5 4 3 2 2 2 1 1 1 0 1 1 1 2 3 2 3 2 2 2 2 1 1 1
11 12 12 11 12 12 12 12 12 12 12 9 8 7 7 6 6 5 6 5 4 3 3 2 1 2 2 1 1 1 2 0 1 3 3 3 5 3 2 2 2 2 2
13 13 14 14 12 12 13 12 12 13 12 11 8 7 7 6 6 6 6 6 5 4 2 2 1 1 0 2 1 1 1 1 0 2 4 3 1 3 4 2 2 2 2
12 13 14 14 14 13 13 13 13 13 12 12 11 11 9 7 7 6 6 6 7 6 5 4 2 1 0 1 1 2 1 2 1 1 1 3 4 3 2 4 3 1 1
13 13 15 15 14 14 13 13 13 13 13 12 11 11 9 7 6 6 6 7 7 7 7 6 4 3 2 1 1 1 1 1 2 1 0 0 1 3 4 2 1 2 1
12 13 13 13 13 14 14 13 14 13 13 13 12 12 10 8 7 7 7 7 6 7 9 8 6 6 4 3 3 2 2 1 1 2 2 2 2 2 3 4 4 3 2
13 13 15 15 15 15 15 15 15 14 14 14 13 13 11 10 10 9 8 8 6 7 9 8 8 7 6 5 4 4 3 3 2 3 2 2 2 3 3 5 5 5 4
14 14 16 16 16 17 16 16 16 15 15 14 14 13 12 10 9 10 8 8 7 6 7 9 9 8 8 7 6 5 5 4 4 4 4 4 4 3 4 5 5 6 5
15 15 16 16 16 17 17 17 16 16 16 16 14 13 12 11 10 9 9 8 7 6 8 9 9 9 9 8 7 7 6 6 6 6 6 6 4 5 5 5 6 6 7
14 15 16 16 16 16 16 16 17 16 16 15 14 12 13 12 11 11 11 9 9 8 9 10 10 10 9 9 9 8 8 8 7 6 6 7 7 5 6 6 6 6 7
14 15 15 16 16 16 16 17 17 16 15 15 14 13 13 13 12 12 12 11 10 10 11 11 11 11 11 11 10 11 9 10 9 9 9 9 9 7 7 7 7 7 8
13 14 15 15 16 16 16 16 16 16 16 15 14 14 13 13 13 13 13 12 12 12 12 12 12 12 12 11 12 12 11 11 11 11 10 10 9 10 9 8 9 9 8
11 12 13 14 14 15 15 16 16 16 16 15 15 14 14 14 14 14 13 13 13 13 12 12 13 12 12 12 13 13 12 12 12 12 12 12 11 11 10 10 10 9 9
9 11 11 11 12 12 13 14 14 14 14 14 15 15 15 15 14 14 13 14 13 13 13 13 13 13 13 13 13 13 13 13 13 13 13 13 13 13 13 11 12 11 11
7 8 9 9 9 10 10 11 12 12 12 13 14 14 13 12 12 12 13 13 13 14 14 14 14 14 14 14 15 14 15 14 14 14 15 15 15 14 13 12 12 12 12
5 5 5 6 6 7 7 8 9 9 9 10 11 10 10 10 11 11 11 12 12 13 13 14 15 15 14 13 14 15 15 14 15 15 15 15 16 17 18 17 16 15 15
5 4 3 3 2 2 3 3 4 4 5 6 5 6 6 7 8 8 9 10 11 12 13 14 15 16 16 14 15 17 17 16 16 16 15 15 15 17 17 19 22 21 22
8 7 7 7 6 5 6 6 5 5 4 3 2 2 2 3 4 5 7 8 8 9 11 12 14 15 15 14 16 16 18 18 18 18 18 18 17 17 17 17 18 19 19
9 9 10 11 10 10 10 10 10 8 7 6 5 4 2 1 1 2 4 5 6 8 9 10 12 13 14 12 14 14 14 16 19 19 19 19 19 18 17 18 19 19 18
11 12 13 13 13 12 11 13 12 10 9 8 7 6 5 4 2 1 2 2 4 6 8 9 10 11 12 9 9 12 12 15 16 16 18 19 21 20 17 19 20 21 20
12 13 13 13 12 11 12 13 12 11 9 8 8 7 6 5 4 4 3 3 4 5 6 7 7 8 9 9 8 10 10 12 14 15 15 15 16 20 20 19 20 21 18
11 12 12 12 11 11 11 12 11 9 8 8 8 8 8 7 6 5 5 5 5 5 6 6 7 7 7 7 6 8 11 13 13 14 15 14 11 12 16 17 19 20 17
10 10 11 12 10 9 9 10 8 7 7 8 8 7 7 6 6 6 5 5 5 6 7 7 8 8 7 7 7 9 11 13 12 13 16 17 17 14 14 18 20 18 16
9 9 10 10 8 7 8 8 6 6 7 7 6 5 5 6 6 6 6 7 7 7 8 9 10 10 10 9 8 9 9 11 12 13 14 16 19 18 17 16 16 16 17
8 7 7 7 7 6 6 6 6 6 6 6 6 6 6 6 6 6 6 7 7 7 9 10 11 12 12 11 12 12 13 14 14 14 15 16 16 15 15 15 16 16 16
7 6 6 6 5 5 5 5 5 5 5 5 6 7 7 7 8 8 8 4 7 7 10 12 12 12 12 14 15 16 16 17 16 14 16 17 17 17 17 17 16 16 16
Wind_Direction
186 186 186 181 174 175 175 174 173 167 166 164 165 163 164 164 159 152 143 147 134 113 61 67 91 8 75 26 348 299 182 283 295 254 212 165 132 86 86 45 36 69 58
186 188 188 181 180 178 179 176 175 172 176 172 170 169 163 171 164 158 154 168 160 153 132 79 105 82 100 98 39 326 308 17 324 291 251 204 172 160 96 92 72 47 60
186 185 189 186 184 181 182 180 176 179 180 171 169 163 162 174 173 178 179 182 180 176 145 145 101 107 227 99 63 345 319 315 85 339 305 283 254 156 153 121 85 59 39
189 186 188 187 187 186 181 180 179 179 177 177 183 182 187 187 186 188 180 181 189 190 182 178 171 204 124 128 180 74 333 298 293 127 14 353 354 296 190 178 153 104 31
191 188 187 185 185 181 179 181 181 182 181 187 191 196 201 196 186 186 178 195 192 198 198 196 193 202 209 161 65 128 316 290 321 318 235 209 235 275 291 263 248 232 226
187 185 183 181 179 179 179 181 183 185 186 192 197 206 206 202 196 198 194 203 198 201 201 204 206 213 213 198 210 214 213 314 335 308 299 282 284 283 284 282 271 278 271
184 181 180 180 180 183 184 185 186 188 191 195 201 207 209 207 208 210 206 213 210 205 199 206 207 215 213 215 217 222 245 228 232 251 265 280 288 295 291 290 290 288 273
184 185 184 184 185 186 187 188 190 192 194 199 204 208 209 215 218 215 219 213 222 217 197 203 209 215 215 217 216 230 224 227 235 242 256 261 256 266 272 283 292 286 273
186 188 187 188 188 189 190 192 194 196 199 202 203 207 210 219 223 213 217 220 216 210 199 206 210 213 215 220 221 234 232 229 237 236 225 243 249 249 259 266 273 284 291
187 189 190 191 191 192 192 195 198 201 203 204 206 208 210 213 217 219 218 218 211 208 204 208 211 214 215 217 224 232 227 233 237 248 255 251 254 248 250 254 257 261 274
189 189 190 192 192 192 193 196 200 203 205 208 209 213 212 212 214 217 217 213 212 206 208 210 213 217 219 219 222 236 231 232 237 237 237 238 253 254 251 246 250 254 258
190 189 189 190 193 195 196 198 202 206 208 209 210 213 215 214 215 218 218 213 211 210 211 213 216 220 222 221 224 231 233 233 236 237 238 240 237 237 249 252 251 253 258
190 188 188 191 194 198 201 203 206 210 211 210 212 215 216 216 217 219 216 213 212 213 215 215 219 223 225 225 227 231 235 237 238 239 239 239 240 239 241 242 249 251 249
186 189 189 193 198 202 206 210 213 214 214 214 215 217 219 218 218 217 214 212 211 213 216 218 222 225 227 229 230 231 234 238 240 241 242 242 239 239 241 241 244 250 256
174 185 191 194 200 205 210 214 218 218 217 218 220 222 223 221 220 217 216 214 214 217 219 221 224 227 230 231 230 232 234 236 240 240 241 241 240 240 240 245 244 242 246
149 161 175 185 195 205 214 218 220 218 213 218 224 226 223 219 218 219 218 216 218 223 224 226 229 231 234 225 221 232 241 240 240 243 242 242 235 233 229 239 248 252 249
93 107 118 123 140 170 186 198 206 199 193 203 217 217 216 217 218 220 221 223 224 226 230 234 236 239 240 228 218 221 239 247 246 245 245 246 243 231 235 229 229 238 242
76 72 76 80 82 90 100 101 103 111 121 125 135 157 200 215 217 225 231 235 235 235 236 240 242 245 245 226 220 220 235 248 250 248 246 246 249 243 238 240 238 237 236
75 73 72 77 75 76 83 87 83 83 85 82 77 73 80 106 197 235 250 250 250 249 249 248 250 251 253 234 223 222 245 247 249 250 249 248 249 244 233 240 245 247 247
80 79 77 75 73 71 78 83 81 75 70 65 62 59 58 54 40 3 319 293 274 268 267 264 263 264 266 255 229 222 250 256 258 255 251 246 242 246 228 237 244 247 248
87 84 80 73 68 69 73 76 73 67 64 65 65 61 53 48 37 23 6 337 313 300 290 288 281 274 272 267 241 224 250 262 266 265 262 259 235 231 231 231 242 248 252
92 88 85 80 72 69 72 72 66 63 63 61 57 52 43 31 32 24 7 350 329 307 296 294 291 284 278 273 271 242 242 263 273 273 272 274 282 250 238 235 242 247 250
98 93 92 86 77 70 71 73 64 60 61 59 52 44 37 29 20 7 353 337 327 317 315 311 306 301 299 285 242 246 250 251 262 274 277 283 285 276 258 241 237 239 244
104 99 94 90 83 73 69 70 64 59 58 51 42 31 20 11 9 346 340 335 330 327 323 317 312 309 305 302 310 306 294 275 269 276 278 266 259 255 257 258 245 241 241
103 98 94 91 85 75 66 61 53 44 40 34 20 8 4 1 343 336 331 323 326 329 313 313 311 310 307 322 336 314 302 301 301 305 291 282 277 270 262 256 252 246 240
110 103 94 86 76 68 61 54 43 32 17 9 2 353 347 345 333 328 322 290 278 266 254 258 275 296 297 305 304 298 290 285 285 288 280 276 273 271 268 264 260 254 248
Height
1522 1524 1527 1530 1533 1536 1539 1543 1546 1550 1553 1556 1559 1561 1563 1565 1566 1567 1567 1567 1567 1567 1567 1568 1567 1568 1568 1568 1569 1569 1569 1569 1569 1570 1569 1569 1569 1568 1568 1569 1569 1569 1569
1520 1521 1525 1528 1531 1534 1538 1541 1545 1548 1552 1555 1558 1560 1563 1565 1566 1567 1566 1567 1567 1567 1568 1567 1568 1568 1567 1567 1567 1567 1569 1569 1568 1569 1569 1569 1569 1568 1568 1568 1568 1568 1569
1516 1519 1522 1525 1528 1532 1536 1540 1543 1547 1551 1554 1557 1560 1561 1563 1565 1565 1566 1566 1566 1567 1567 1567 1568 1567 1568 1568 1567 1567 1567 1568 1568 1567 1569 1568 1566 1568 1568 1568 1567 1567 1568
1514 1517 1520 1523 1526 1530 1534 1538 1541 1545 1549 1553 1556 1558 1561 1563 1564 1565 1565 1565 1565 1566 1566 1567 1567 1567 1568 1567 1567 1566 1566 1566 1568 1567 1566 1567 1567 1567 1567 1568 1567 1567 1567
1512 1515 1518 1521 1525 1528 1532 1536 1540 1544 1548 1551 1554 1557 1559 1562 1563 1563 1564 1564 1564 1565 1565 1566 1566 1566 1567 1566 1565 1565 1565 1566 1567 1567 1567 1567 1566 1567 1567 1567 1567 1567 1567
1510 1513 1517 1520 1524 1527 1531 1534 1538 1542 1546 1549 1552 1555 1557 1559 1561 1561 1562 1563 1563 1563 1564 1564 1565 1565 1566 1565 1565 1565 1565 1565 1564 1565 1566 1566 1567 1566 1566 1566 1566 1566 1565
1508 1511 1515 1518 1522 1525 1529 1532 1536 1540 1543 1547 1550 1552 1555 1557 1558 1560 1561 1561 1562 1562 1562 1563 1563 1564 1564 1564 1564 1563 1564 1564 1563 1563 1564 1565 1565 1565 1565 1565 1564 1564 1563
1506 1510 1513 1517 1520 1523 1527 1530 1534 1537 1541 1544 1547 1550 1552 1554 1556 1557 1559 1559 1560 1561 1560 1560 1561 1561 1562 1562 1562 1563 1563 1562 1562 1562 1562 1562 1563 1563 1563 1563 1563 1562 1561
1505 1508 1511 1515 1518 1521 1525 1528 1531 1535 1538 1541 1544 1547 1549 1551 1553 1554 1555 1557 1557 1557 1557 1557 1558 1559 1559 1560 1560 1561 1561 1560 1560 1561 1560 1560 1561 1560 1560 1561 1561 1561 1559
1503 1506 1509 1513 1516 1520 1523 1526 1530 1532 1536 1539 1541 1544 1546 1548 1550 1551 1552 1553 1554 1554 1554 1555 1556 1556 1557 1557 1558 1558 1558 1558 1558 1558 1558 1557 1558 1558 1558 1558 1558 1558 1558
1501 1504 1507 1511 1514 1518 1521 1524 1527 1529 1532 1535 1538 1541 1543 1545 1546 1547 1548 1549 1550 1551 1551 1552 1553 1553 1554 1554 1555 1555 1556 1555 1556 1555 1555 1554 1554 1555 1555 1555 1555 1554 1554
1499 1502 1505 1509 1512 1515 1518 1521 1524 1526 1529 1532 1535 1537 1539 1540 1542 1543 1544 1545 1546 1547 1548 1548 1549 1550 1550 1551 1551 1552 1552 1552 1552 1552 1552 1551 1551 1550 1551 1551 1551 1550 1550
1497 1500 1503 1506 1510 1513 1516 1518 1521 1523 1526 1529 1531 1532 1534 1536 1537 1539 1540 1541 1542 1543 1544 1545 1545 1546 1547 1547 1547 1548 1548 1548 1548 1548 1548 1547 1547 1546 1547 1546 1546 1546 1546
1496 1498 1501 1504 1507 1510 1512 1515 1517 1520 1522 1524 1526 1528 1529 1531 1533 1534 1535 1537 1538 1538 1539 1540 1541 1542 1542 1543 1543 1543 1543 1544 1543 1543 1543 1542 1542 1542 1541 1541 1541 1541 1541
1494 1497 1499 1502 1504 1506 1509 1511 1513 1516 1518 1520 1521 1523 1524 1526 1528 1529 1531 1532 1533 1534 1535 1535 1536 1537 1537 1538 1538 1538 1538 1538 1538 1538 1537 1537 1536 1536 1536 1536 1536 1536 1535
1494 1495 1497 1499 1501 1503 1505 1507 1509 1511 1512 1514 1516 1518 1519 1521 1522 1524 1526 1527 1528 1529 1530 1530 1531 1531 1532 1532 1532 1533 1533 1532 1532 1531 1531 1530 1529 1529 1529 1528 1529 1529 1528
1494 1495 1496 1497 1498 1500 1501 1503 1505 1506 1508 1509 1511 1513 1514 1515 1517 1519 1520 1521 1522 1523 1524 1525 1525 1525 1525 1526 1526 1526 1526 1525 1524 1524 1523 1523 1523 1522 1521 1520 1520 1520 1519
1495 1496 1496 1496 1497 1498 1499 1499 1501 1503 1504 1505 1507 1508 1510 1511 1512 1513 1515 1515 1516 1517 1517 1518 1518 1518 1518 1518 1519 1519 1518 1517 1516 1515 1515 1514 1514 1514 1514 1513 1512 1511 1510
1497 1497 1498 1497 1498 1498 1498 1498 1500 1502 1502 1503 1504 1506 1507 1508 1508 1509 1509 1510 1510 1510 1510 1510 1510 1510 1510 1510 1510 1510 1508 1507 1506 1506 1506 1505 1505 1505 1505 1504 1503 1502 1502
1499 1499 1500 1499 1499 1499 1500 1499 1501 1502 1502 1502 1503 1504 1504 1504 1505 1505 1505 1505 1504 1504 1504 1504 1503 1502 1502 1502 1501 1501 1500 1498 1498 1497 1496 1495 1495 1495 1495 1494 1493 1492 1492
1502 1501 1501 1502 1502 1502 1502 1501 1502 1502 1503 1503 1503 1503 1502 1502 1502 1501 1501 1501 1500 1499 1499 1498 1497 1496 1494 1494 1493 1492 1491 1489 1488 1488 1487 1487 1486 1485 1484 1484 1483 1482 1483
1505 1504 1503 1503 1504 1504 1504 1504 1504 1504 1504 1504 1503 1502 1501 1501 1500 1499 1498 1497 1496 1496 1494 1493 1491 1490 1489 1487 1485 1484 1483 1481 1479 1477 1477 1477 1476 1474 1473 1472 1471 1472 1472
1506 1506 1505 1505 1506 1507 1506 1506 1506 1505 1504 1503 1503 1502 1501 1500 1498 1497 1496 1495 1494 1493 1491 1489 1488 1486 1484 1482 1479 1477 1475 1473 1470 1468 1467 1465 1464 1462 1461 1460 1460 1460 1460
1508 1508 1508 1508 1509 1509 1508 1507 1506 1505 1505 1504 1503 1502 1500 1499 1497 1496 1495 1493 1492 1490 1487 1485 1483 1481 1479 1477 1474 1471 1469 1466 1463 1460 1457 1455 1452 1451 1449 1448 1447 1446 1446
1509 1510 1510 1510 1510 1509 1508 1508 1507 1506 1505 1504 1503 1501 1500 1498 1496 1494 1492 1490 1488 1485 1483 1480 1478 1475 1472 1470 1467 1464 1461 1458 1456 1451 1448 1446 1444 1441 1439 1438 1436 1435 1434
1510 1511 1511 1511 1510 1510 1509 1508 1507 1506 1504 1503 1502 1500 1498 1496 1494 1492 1489 1486 1483 1479 1476 1473 1471 1467 1465 1462 1458 1455 1452 1449 1446 1442 1438 1436 1434 1432 1429 1428 1426 1425 1424